カタログに戻る

JITIANXING A-03 XING

運用中科学SSO
NORAD 60748·PAYLOAD·🇨🇳 China
この衛星名は、まだ公式ソースで確認されていません。

打ち上げ Aug 29, 2024 から Yellow Sea Launch Area

Loading…

次のパス (今後24時間)

TLE

最新Source: Space-Track

元期: Sep 14, 2026, 22:53 UTC

1 60748U 24153D   26257.95369140  .00016275  00000-0  55936-3 0  9991
2 60748  97.6909  38.7720 0001026 208.2234 151.8951 15.30186219113566

AllMySatでJITIANXING A-03 XINGをリアルタイム追跡

Download on the App Store